Time,TemperatureF,DewpointF,PressureIn,WindDirection,WindDirectionDegrees,WindSpeedMPH,WindSpeedGustMPH,Humidity,HourlyPrecipIn,Conditions,Clouds,dailyrainin,SoftwareType,DateUTC
2013-02-06 00:00:00,24.9,18.4,29.89,SW,217,2.3,2.3,76,0.00,CLR,,0.00,WeatherDisplay:10.37,2013-02-06 05:00:00,
2013-02-06 00:05:00,25.1,18.6,29.89,SW,218,1.2,1.2,76,0.00,CLR,,0.00,WeatherDisplay:10.37,2013-02-06 05:05:00,
2013-02-06 11:28:00,24.4,15.0,30.21,WNW,302,19.0,19.0,67,0.00,CLR,,0.00,WeatherDisplay:10.37,2013-02-06 16:28:00,
2013-02-06 11:33:00,24.4,14.3,30.22,SW,228,8.0,8.0,65,0.00,CLR,,0.00,WeatherDisplay:10.37,2013-02-06 16:33:00,
2013-02-06 11:38:00,23.8,13.7,30.22,NW,304,11.0,11.0,65,0.00,CLR,,0.00,WeatherDisplay:10.37,2013-02-06 16:38:00,
2013-02-06 11:43:00,23.5,12.7,30.22,WNW,284,16.1,16.1,63,0.00,CLR,,0.00,WeatherDisplay:10.37,2013-02-06 16:43:00,
2013-02-06 11:48:00,23.3,12.9,30.23,WNW,284,10.4,10.4,64,0.00,CLR,,0.00,WeatherDisplay:10.37,2013-02-06 16:48:00,
2013-02-06 11:53:00,23.2,12.5,30.23,WNW,285,7.0,7.0,63,0.00,CLR,,0.00,WeatherDisplay:10.37,2013-02-06 16:53:00,
2013-02-06 11:58:00,23.5,12.0,30.23,North,11,10.4,10.4,61,0.00,CLR,,0.00,WeatherDisplay:10.37,2013-02-06 16:58:00,
2013-02-06 12:03:00,23.8,11.5,30.23,West,272,11.5,11.5,59,0.00,CLR,,0.00,WeatherDisplay:10.37,2013-02-06 17:03:00,
2013-02-06 12:08:00,23.9,11.6,30.23,North,8,9.2,9.2,59,0.00,CLR,,0.00,WeatherDisplay:10.37,2013-02-06 17:08:00,
2013-02-06 12:13:00,23.8,10.8,30.23,West,276,11.5,11.5,57,0.00,CLR,,0.00,WeatherDisplay:10.37,2013-02-06 17:13:00,
2013-02-06 12:18:00,23.8,10.4,30.23,West,274,4.6,4.6,56,0.00,CLR,,0.00,WeatherDisplay:10.37,2013-02-06 17:18:00,
2013-02-06 12:23:00,24.1,9.8,30.24,WNW,290,8.1,8.1,54,0.00,CLR,,0.00,WeatherDisplay:10.37,2013-02-06 17:23:00,
2013-02-06 12:28:00,23.8,9.6,30.24,SW,226,13.0,13.0,54,0.00,CLR,,0.00,WeatherDisplay:10.37,2013-02-06 17:28:00,
2013-02-06 12:33:00,23.4,9.2,30.24,NW,307,13.0,13.0,54,0.00,CLR,,0.00,WeatherDisplay:10.37,2013-02-06 17:33:00,
2013-02-06 12:38:00,23.1,9.3,30.25,West,276,9.2,9.2,55,0.00,CLR,,0.00,WeatherDisplay:10.37,2013-02-06 17:38:00,
2013-02-06 12:43:00,23.2,9.4,30.25,North,11,5.8,5.8,55,0.00,CLR,,0.00,WeatherDisplay:10.37,2013-02-06 17:43:00,
2013-02-06 12:48:00,23.2,8.2,30.25,WNW,294,5.8,5.8,52,0.00,CLR,,0.00,WeatherDisplay:10.37,2013-02-06 17:48:00,
2013-02-06 12:53:00,23.0,7.5,30.25,NW,318,9.2,9.2,51,0.00,CLR,,0.00,WeatherDisplay:10.37,2013-02-06 17:53:00,
2013-02-06 12:58:00,22.7,6.8,30.25,NW,304,6.0,6.0,50,0.00,CLR,,0.00,WeatherDisplay:10.37,2013-02-06 17:58:00,
2013-02-06 13:03:00,22.6,6.7,30.25,WNW,294,8.1,8.1,50,0.00,CLR,,0.00,WeatherDisplay:10.37,2013-02-06 18:03:00,
2013-02-06 13:08:00,22.7,8.1,30.25,North,360,5.0,5.0,53,0.00,CLR,,0.00,WeatherDisplay:10.37,2013-02-06 18:08:00,
2013-02-06 13:13:00,22.8,7.4,30.25,WSW,245,4.6,4.6,51,0.00,CLR,,0.00,WeatherDisplay:10.37,2013-02-06 18:13:00,
2013-02-06 13:18:00,22.8,6.9,30.26,WNW,285,5.8,5.8,50,0.00,CLR,,0.00,WeatherDisplay:10.37,2013-02-06 18:18:00,
2013-02-06 13:23:00,23.0,8.0,30.25,SSW,203,8.1,8.1,52,0.00,CLR,,0.00,WeatherDisplay:10.37,2013-02-06 18:23:00,
2013-02-06 13:28:00,22.8,7.4,30.26,North,350,4.6,4.6,51,0.00,CLR,,0.00,WeatherDisplay:10.37,2013-02-06 18:28:00,
2013-02-06 13:33:00,22.7,7.3,30.26,WNW,287,10.4,10.4,51,0.00,CLR,,0.00,WeatherDisplay:10.37,2013-02-06 18:33:00,
2013-02-06 13:38:00,22.5,7.5,30.26,WNW,300,12.7,12.7,52,0.00,CLR,,0.00,WeatherDisplay:10.37,2013-02-06 18:38:00,
2013-02-06 13:43:00,22.5,7.9,30.26,North,354,8.1,8.1,53,0.00,CLR,,0.00,WeatherDisplay:10.37,2013-02-06 18:43:00,
2013-02-06 13:48:00,22.3,6.9,30.26,NW,321,8.1,8.1,51,0.00,CLR,,0.00,WeatherDisplay:10.37,2013-02-06 18:48:00,
2013-02-06 13:53:00,22.5,7.9,30.26,WNW,302,4.6,4.6,53,0.00,CLR,,0.00,WeatherDisplay:10.37,2013-02-06 18:53:00,
2013-02-06 13:58:00,22.8,9.0,30.26,West,280,4.0,4.0,55,0.00,CLR,,0.00,WeatherDisplay:10.37,2013-02-06 18:58:00,
2013-02-06 14:03:00,22.8,8.2,30.27,WNW,300,7.0,7.0,53,0.00,CLR,,0.00,WeatherDisplay:10.37,2013-02-06 19:03:00,
2013-02-06 14:08:00,23.0,8.8,30.27,WNW,286,9.2,9.2,54,0.00,CLR,,0.00,WeatherDisplay:10.37,2013-02-06 19:08:00,
2013-02-06 14:13:00,22.8,8.2,30.27,WNW,286,11.5,11.5,53,0.00,CLR,,0.00,WeatherDisplay:10.37,2013-02-06 19:13:00,
2013-02-06 14:18:00,23.0,9.2,30.27,NW,324,4.6,4.6,55,0.00,CLR,,0.00,WeatherDisplay:10.37,2013-02-06 19:18:00,
2013-02-06 14:23:00,23.3,9.5,30.27,West,272,5.8,5.8,55,0.00,CLR,,0.00,WeatherDisplay:10.37,2013-02-06 19:23:00,
2013-02-06 14:28:00,23.1,8.9,30.27,NW,326,6.9,6.9,54,0.00,CLR,,0.00,WeatherDisplay:10.37,2013-02-06 19:28:00,
2013-02-06 14:33:00,23.2,9.4,30.27,WNW,287,6.9,6.9,55,0.00,CLR,,0.00,WeatherDisplay:10.37,2013-02-06 19:33:00,
2013-02-06 14:38:00,22.9,9.1,30.28,SW,222,6.0,6.0,55,0.00,CLR,,0.00,WeatherDisplay:10.37,2013-02-06 19:38:00,
2013-02-06 14:43:00,23.1,9.7,30.28,North,11,4.6,4.6,56,0.00,CLR,,0.00,WeatherDisplay:10.37,2013-02-06 19:43:00,
2013-02-06 14:48:00,23.2,9.4,30.28,NW,319,5.8,5.8,55,0.00,CLR,,0.00,WeatherDisplay:10.37,2013-02-06 19:48:00,
2013-02-06 14:53:00,23.4,9.2,30.28,NNW,332,5.8,5.8,54,0.00,CLR,,0.00,WeatherDisplay:10.37,2013-02-06 19:53:00,
2013-02-06 14:58:00,23.4,8.8,30.29,NW,321,5.8,5.8,53,0.00,CLR,,0.00,WeatherDisplay:10.37,2013-02-06 19:58:00,
2013-02-06 15:03:00,23.7,9.9,30.29,NW,311,6.9,6.9,55,0.00,CLR,,0.00,WeatherDisplay:10.37,2013-02-06 20:03:00,
2013-02-06 15:08:00,23.6,8.9,30.29,WNW,290,6.9,6.9,53,0.00,CLR,,0.00,WeatherDisplay:10.37,2013-02-06 20:08:00,
2013-02-06 15:13:00,23.7,9.5,30.29,WNW,283,5.8,5.8,54,0.00,CLR,,0.00,WeatherDisplay:10.37,2013-02-06 20:13:00,
2013-02-06 15:18:00,23.6,8.9,30.29,West,276,5.8,5.8,53,0.00,CLR,,0.00,WeatherDisplay:10.37,2013-02-06 20:18:00,
2013-02-06 15:23:00,23.8,9.6,30.29,WSW,242,4.6,4.6,54,0.00,CLR,,0.00,WeatherDisplay:10.37,2013-02-06 20:23:00,
2013-02-06 15:28:00,24.1,9.4,30.29,WNW,283,3.5,3.5,53,0.00,CLR,,0.00,WeatherDisplay:10.37,2013-02-06 20:28:00,
2013-02-06 15:33:00,24.0,9.3,30.30,WNW,295,3.5,3.5,53,0.00,CLR,,0.00,WeatherDisplay:10.37,2013-02-06 20:33:00,
2013-02-06 15:38:00,24.1,9.8,30.30,WNW,293,5.8,5.8,54,0.00,CLR,,0.00,WeatherDisplay:10.37,2013-02-06 20:38:00,
2013-02-06 15:43:00,23.9,9.6,30.30,NW,304,6.9,6.9,54,0.00,CLR,,0.00,WeatherDisplay:10.37,2013-02-06 20:43:00,
2013-02-06 15:48:00,23.8,10.4,30.30,North,358,4.0,4.0,56,0.00,CLR,,0.00,WeatherDisplay:10.37,2013-02-06 20:48:00,
2013-02-06 15:53:00,23.6,9.8,30.31,North,355,5.8,5.8,55,0.00,CLR,,0.00,WeatherDisplay:10.37,2013-02-06 20:53:00,
2013-02-06 15:58:00,23.4,10.4,30.31,NW,319,3.5,3.5,57,0.00,CLR,,0.00,WeatherDisplay:10.37,2013-02-06 20:58:00,
2013-02-06 16:03:00,23.3,9.9,30.31,WNW,293,3.5,3.5,56,0.00,CLR,,0.00,WeatherDisplay:10.37,2013-02-06 21:03:00,
2013-02-06 16:08:00,23.1,10.1,30.31,NW,308,9.2,9.2,57,0.00,CLR,,0.00,WeatherDisplay:10.37,2013-02-06 21:08:00,
2013-02-06 16:13:00,23.0,10.0,30.31,NW,314,3.5,3.5,57,0.00,CLR,,0.00,WeatherDisplay:10.37,2013-02-06 21:13:00,
2013-02-06 16:18:00,22.9,9.9,30.31,WSW,257,4.0,4.0,57,0.00,CLR,,0.00,WeatherDisplay:10.37,2013-02-06 21:18:00,
2013-02-06 16:23:00,22.7,9.7,30.32,WSW,248,8.1,8.1,57,0.00,CLR,,0.00,WeatherDisplay:10.37,2013-02-06 21:23:00,
2013-02-06 16:28:00,22.4,9.4,30.31,WNW,300,4.0,4.0,57,0.00,CLR,,0.00,WeatherDisplay:10.37,2013-02-06 21:28:00,
2013-02-06 16:33:00,22.1,9.6,30.31,NE,39,2.3,2.3,58,0.00,CLR,,0.00,WeatherDisplay:10.37,2013-02-06 21:33:00,
2013-02-06 16:38:00,22.0,9.8,30.31,NNW,346,5.8,5.8,59,0.00,CLR,,0.00,WeatherDisplay:10.37,2013-02-06 21:38:00,
2013-02-06 16:43:00,21.9,9.7,30.32,WNW,291,6.9,6.9,59,0.00,CLR,,0.00,WeatherDisplay:10.37,2013-02-06 21:43:00,
2013-02-06 16:48:00,21.7,9.6,30.32,NW,311,5.8,5.8,59,0.00,CLR,,0.00,WeatherDisplay:10.37,2013-02-06 21:48:00,
2013-02-06 16:53:00,21.7,9.9,30.32,WNW,290,4.6,4.6,60,0.00,CLR,,0.00,WeatherDisplay:10.37,2013-02-06 21:53:00,
2013-02-06 16:58:00,21.6,9.8,30.32,NW,309,2.3,2.3,60,0.00,CLR,,0.00,WeatherDisplay:10.37,2013-02-06 21:58:00,
2013-02-06 17:03:00,21.4,10.0,30.32,WNW,285,3.5,3.5,61,0.00,CLR,,0.00,WeatherDisplay:10.37,2013-02-06 22:03:00,
2013-02-06 17:08:00,21.2,9.8,30.32,WNW,295,6.9,6.9,61,0.00,CLR,,0.00,WeatherDisplay:10.37,2013-02-06 22:08:00,
2013-02-06 17:13:00,21.1,9.7,30.32,WNW,283,6.0,6.0,61,0.00,CLR,,0.00,WeatherDisplay:10.37,2013-02-06 22:13:00,
2013-02-06 17:18:00,20.9,9.9,30.32,WNW,302,5.0,5.0,62,0.00,CLR,,0.00,WeatherDisplay:10.37,2013-02-06 22:18:00,
2013-02-06 17:23:00,20.8,9.8,30.32,SW,229,3.5,3.5,62,0.00,CLR,,0.00,WeatherDisplay:10.37,2013-02-06 22:23:00,
2013-02-06 17:28:00,20.6,10.0,30.33,WNW,286,3.5,3.5,63,0.00,CLR,,0.00,WeatherDisplay:10.37,2013-02-06 22:28:00,
2013-02-06 17:33:00,20.5,9.9,30.32,WNW,290,3.5,3.5,63,0.00,CLR,,0.00,WeatherDisplay:10.37,2013-02-06 22:33:00,
2013-02-06 17:38:00,20.4,9.8,30.32,WNW,290,3.5,3.5,63,0.00,CLR,,0.00,WeatherDisplay:10.37,2013-02-06 22:38:00,
2013-02-06 17:43:00,20.2,10.0,30.33,WSW,250,0.0,0.0,64,0.00,CLR,,0.00,WeatherDisplay:10.37,2013-02-06 22:43:00,
2013-02-06 17:48:00,20.1,9.9,30.33,West,267,1.2,0.0,64,0.00,CLR,,0.00,WeatherDisplay:10.37,2013-02-06 22:48:00,
2013-02-06 17:53:00,19.9,10.0,30.33,NNW,330,2.3,2.3,65,0.00,CLR,,0.00,WeatherDisplay:10.37,2013-02-06 22:53:00,
2013-02-06 17:58:00,19.8,9.9,30.33,NW,316,1.2,1.2,65,0.00,CLR,,0.00,WeatherDisplay:10.37,2013-02-06 22:58:00,
2013-02-06 18:03:00,19.7,10.2,30.33,WNW,295,0.0,0.0,66,0.00,CLR,,0.00,WeatherDisplay:10.37,2013-02-06 23:03:00,
2013-02-06 18:08:00,19.6,10.1,30.33,West,269,1.2,0.0,66,0.00,CLR,,0.00,WeatherDisplay:10.37,2013-02-06 23:08:00,
2013-02-06 18:13:00,19.4,9.9,30.33,West,269,1.2,1.2,66,0.00,CLR,,0.00,WeatherDisplay:10.37,2013-02-06 23:13:00,
2013-02-06 18:18:00,19.3,10.1,30.34,WNW,283,0.0,0.0,67,0.00,CLR,,0.00,WeatherDisplay:10.37,2013-02-06 23:18:00,
2013-02-06 18:23:00,19.2,10.4,30.34,WNW,283,0.0,0.0,68,0.00,CLR,,0.00,WeatherDisplay:10.37,2013-02-06 23:23:00,
2013-02-06 18:28:00,19.1,10.3,30.34,WNW,295,2.3,2.3,68,0.00,CLR,,0.00,WeatherDisplay:10.37,2013-02-06 23:28:00,
2013-02-06 18:33:00,19.0,10.2,30.34,WNW,295,0.0,0.0,68,0.00,CLR,,0.00,WeatherDisplay:10.37,2013-02-06 23:33:00,
2013-02-06 18:38:00,18.7,10.2,30.34,WNW,295,0.0,0.0,69,0.00,CLR,,0.00,WeatherDisplay:10.37,2013-02-06 23:38:00,
2013-02-06 18:43:00,18.2,9.7,30.34,WNW,295,1.2,1.2,69,0.00,CLR,,0.00,WeatherDisplay:10.37,2013-02-06 23:43:00,
2013-02-06 18:48:00,17.7,10.2,30.35,WNW,295,0.0,0.0,72,0.00,CLR,,0.00,WeatherDisplay:10.37,2013-02-06 23:48:00,
2013-02-06 18:53:00,17.3,10.1,30.35,WNW,295,0.0,0.0,73,0.00,CLR,,0.00,WeatherDisplay:10.37,2013-02-06 23:53:00,
2013-02-06 18:58:00,17.3,10.1,30.35,WNW,295,0.0,0.0,73,0.00,CLR,,0.00,WeatherDisplay:10.37,2013-02-06 23:58:00,
2013-02-06 19:03:00,17.0,9.8,30.35,WNW,295,0.0,0.0,73,0.00,CLR,,0.00,WeatherDisplay:10.37,2013-02-07 00:03:00,
2013-02-06 19:08:00,16.7,9.8,30.36,WNW,295,0.0,0.0,74,0.00,CLR,,0.00,WeatherDisplay:10.37,2013-02-07 00:08:00,
2013-02-06 19:13:00,16.3,9.5,30.36,WNW,295,0.0,0.0,74,0.00,CLR,,0.00,WeatherDisplay:10.37,2013-02-07 00:13:00,
2013-02-06 19:18:00,16.0,10.1,30.35,WNW,295,0.0,0.0,77,0.00,CLR,,0.00,WeatherDisplay:10.37,2013-02-07 00:18:00,
2013-02-06 19:23:00,15.7,9.8,30.36,WNW,295,0.0,0.0,77,0.00,CLR,,0.00,WeatherDisplay:10.37,2013-02-07 00:23:00,
2013-02-06 19:28:00,15.5,9.9,30.36,WNW,295,0.0,0.0,78,0.00,CLR,,0.00,WeatherDisplay:10.37,2013-02-07 00:28:00,
2013-02-06 19:33:00,14.9,9.0,30.37,WNW,295,0.0,0.0,77,0.00,CLR,,0.00,WeatherDisplay:10.37,2013-02-07 00:33:00,
2013-02-06 19:38:00,14.7,9.4,30.37,WNW,295,0.0,0.0,79,0.00,CLR,,0.00,WeatherDisplay:10.37,2013-02-07 00:38:00,
2013-02-06 19:43:00,14.4,9.1,30.37,WNW,295,0.0,0.0,79,0.00,CLR,,0.00,WeatherDisplay:10.37,2013-02-07 00:43:00,
2013-02-06 19:48:00,14.1,9.1,30.38,WNW,295,0.0,0.0,80,0.00,CLR,,0.00,WeatherDisplay:10.37,2013-02-07 00:48:00,
2013-02-06 19:53:00,14.0,9.0,30.38,WNW,295,0.0,0.0,80,0.00,CLR,,0.00,WeatherDisplay:10.37,2013-02-07 00:53:00,
2013-02-06 19:58:00,14.0,9.5,30.38,WNW,295,0.0,0.0,82,0.00,CLR,,0.00,WeatherDisplay:10.37,2013-02-07 00:58:00,
2013-02-06 20:03:00,14.5,10.3,30.38,WNW,295,0.0,0.0,83,0.00,CLR,,0.00,WeatherDisplay:10.37,2013-02-07 01:03:00,
2013-02-06 20:08:00,15.4,10.9,30.39,WNW,295,0.0,0.0,82,0.00,CLR,,0.00,WeatherDisplay:10.37,2013-02-07 01:08:00,
2013-02-06 20:13:00,16.3,11.2,30.39,WNW,295,0.0,0.0,80,0.00,CLR,,0.00,WeatherDisplay:10.37,2013-02-07 01:13:00,
2013-02-06 20:18:00,16.9,11.5,30.39,WNW,295,0.0,0.0,79,0.00,CLR,,0.00,WeatherDisplay:10.37,2013-02-07 01:18:00,
2013-02-06 20:23:00,17.4,12.0,30.39,WNW,295,0.0,0.0,79,0.00,CLR,,0.00,WeatherDisplay:10.37,2013-02-07 01:23:00,
2013-02-06 20:28:00,17.8,12.4,30.39,WNW,295,0.0,0.0,79,0.00,CLR,,0.00,WeatherDisplay:10.37,2013-02-07 01:28:00,
2013-02-06 20:33:00,18.1,12.4,30.39,WNW,295,0.0,0.0,78,0.00,CLR,,0.00,WeatherDisplay:10.37,2013-02-07 01:33:00,
2013-02-06 20:38:00,18.4,12.7,30.39,WNW,295,0.0,0.0,78,0.00,CLR,,0.00,WeatherDisplay:10.37,2013-02-07 01:38:00,
2013-02-06 20:43:00,18.5,12.5,30.40,WNW,295,0.0,0.0,77,0.00,CLR,,0.00,WeatherDisplay:10.37,2013-02-07 01:43:00,
2013-02-06 20:48:00,18.6,12.6,30.40,West,273,0.0,0.0,77,0.00,CLR,,0.00,WeatherDisplay:10.37,2013-02-07 01:48:00,
2013-02-06 20:53:00,18.8,12.5,30.40,West,273,0.0,0.0,76,0.00,CLR,,0.00,WeatherDisplay:10.37,2013-02-07 01:53:00,
2013-02-06 20:58:00,18.9,12.9,30.40,West,273,0.0,0.0,77,0.00,CLR,,0.00,WeatherDisplay:10.37,2013-02-07 01:58:00,
2013-02-06 21:03:00,19.0,13.0,30.40,West,274,0.0,0.0,77,0.00,CLR,,0.00,WeatherDisplay:10.37,2013-02-07 02:03:00,
2013-02-06 21:08:00,19.0,12.7,30.40,West,274,0.0,0.0,76,0.00,CLR,,0.00,WeatherDisplay:10.37,2013-02-07 02:08:00,
2013-02-06 21:13:00,18.9,12.6,30.40,West,274,0.0,0.0,76,0.00,CLR,,0.00,WeatherDisplay:10.37,2013-02-07 02:13:00,
2013-02-06 21:18:00,18.7,12.4,30.40,West,274,0.0,0.0,76,0.00,CLR,,0.00,WeatherDisplay:10.37,2013-02-07 02:18:00,
2013-02-06 21:23:00,18.5,12.2,30.40,West,274,0.0,0.0,76,0.00,CLR,,0.00,WeatherDisplay:10.37,2013-02-07 02:23:00,
2013-02-06 21:28:00,18.5,12.8,30.40,West,274,0.0,0.0,78,0.00,CLR,,0.00,WeatherDisplay:10.37,2013-02-07 02:28:00,
2013-02-06 21:33:00,18.4,12.7,30.40,West,274,0.0,0.0,78,0.00,CLR,,0.00,WeatherDisplay:10.37,2013-02-07 02:33:00,
2013-02-06 21:38:00,18.1,12.4,30.40,West,274,0.0,0.0,78,0.00,CLR,,0.00,WeatherDisplay:10.37,2013-02-07 02:38:00,
2013-02-06 21:43:00,17.9,12.5,30.40,West,274,0.0,0.0,79,0.00,CLR,,0.00,WeatherDisplay:10.37,2013-02-07 02:43:00,
2013-02-06 21:48:00,17.6,12.2,30.40,West,274,0.0,0.0,79,0.00,CLR,,0.00,WeatherDisplay:10.37,2013-02-07 02:48:00,
2013-02-06 21:53:00,17.2,11.8,30.40,West,274,0.0,0.0,79,0.00,CLR,,0.00,WeatherDisplay:10.37,2013-02-07 02:53:00,
2013-02-06 21:58:00,16.9,11.8,30.40,West,274,0.0,0.0,80,0.00,CLR,,0.00,WeatherDisplay:10.37,2013-02-07 02:58:00,
2013-02-06 22:03:00,16.6,11.8,30.40,West,274,0.0,0.0,81,0.00,CLR,,0.00,WeatherDisplay:10.37,2013-02-07 03:03:00,
2013-02-06 22:08:00,16.3,11.5,30.40,West,274,0.0,0.0,81,0.00,CLR,,0.00,WeatherDisplay:10.37,2013-02-07 03:08:00,
2013-02-06 22:13:00,16.1,11.6,30.40,West,274,0.0,0.0,82,0.00,CLR,,0.00,WeatherDisplay:10.37,2013-02-07 03:13:00,
2013-02-06 22:18:00,15.8,11.3,30.40,West,274,0.0,0.0,82,0.00,CLR,,0.00,WeatherDisplay:10.37,2013-02-07 03:18:00,
2013-02-06 22:23:00,15.8,11.6,30.40,West,274,0.0,0.0,83,0.00,CLR,,0.00,WeatherDisplay:10.37,2013-02-07 03:23:00,
2013-02-06 22:28:00,15.9,11.7,30.40,West,274,0.0,0.0,83,0.00,CLR,,0.00,WeatherDisplay:10.37,2013-02-07 03:28:00,
2013-02-06 22:33:00,15.8,11.6,30.40,West,274,0.0,0.0,83,0.00,CLR,,0.00,WeatherDisplay:10.37,2013-02-07 03:33:00,
2013-02-06 22:38:00,15.8,11.6,30.40,West,274,0.0,0.0,83,0.00,CLR,,0.00,WeatherDisplay:10.37,2013-02-07 03:38:00,
2013-02-06 22:43:00,15.8,11.8,30.40,West,274,0.0,0.0,84,0.00,CLR,,0.00,WeatherDisplay:10.37,2013-02-07 03:43:00,
2013-02-06 22:48:00,15.9,11.7,30.40,West,274,0.0,0.0,83,0.00,CLR,,0.00,WeatherDisplay:10.37,2013-02-07 03:48:00,
2013-02-06 22:53:00,16.0,12.0,30.40,West,273,0.0,0.0,84,0.00,CLR,,0.00,WeatherDisplay:10.37,2013-02-07 03:53:00,
2013-02-06 22:58:00,16.0,11.7,30.41,West,273,0.0,0.0,83,0.00,CLR,,0.00,WeatherDisplay:10.37,2013-02-07 03:58:00,
2013-02-06 23:03:00,15.9,11.7,30.41,West,273,0.0,0.0,83,0.00,CLR,,0.00,WeatherDisplay:10.37,2013-02-07 04:03:00,
2013-02-06 23:08:00,15.7,11.7,30.41,West,273,0.0,0.0,84,0.00,CLR,,0.00,WeatherDisplay:10.37,2013-02-07 04:08:00,
2013-02-06 23:13:00,15.5,11.5,30.41,West,273,0.0,0.0,84,0.00,CLR,,0.00,WeatherDisplay:10.37,2013-02-07 04:13:00,
2013-02-06 23:18:00,15.4,11.7,30.41,West,274,0.0,0.0,85,0.00,CLR,,0.00,WeatherDisplay:10.37,2013-02-07 04:18:00,
2013-02-06 23:23:00,15.5,11.8,30.41,West,274,0.0,0.0,85,0.00,CLR,,0.00,WeatherDisplay:10.37,2013-02-07 04:23:00,
2013-02-06 23:28:00,15.7,12.0,30.41,West,274,0.0,0.0,85,0.00,CLR,,0.00,WeatherDisplay:10.37,2013-02-07 04:28:00,
2013-02-06 23:33:00,15.7,12.0,30.41,West,274,0.0,0.0,85,0.00,CLR,,0.00,WeatherDisplay:10.37,2013-02-07 04:33:00,
2013-02-06 23:38:00,15.6,11.9,30.41,West,274,0.0,0.0,85,0.00,CLR,,0.00,WeatherDisplay:10.37,2013-02-07 04:38:00,
2013-02-06 23:43:00,15.6,11.9,30.40,West,274,0.0,0.0,85,0.00,CLR,,0.00,WeatherDisplay:10.37,2013-02-07 04:43:00,
2013-02-06 23:48:00,15.4,11.4,30.40,West,274,0.0,0.0,84,0.00,CLR,,0.00,WeatherDisplay:10.37,2013-02-07 04:48:00,
2013-02-06 23:53:00,15.1,11.1,30.40,West,274,0.0,0.0,84,0.00,CLR,,0.00,WeatherDisplay:10.37,2013-02-07 04:53:00,
2013-02-06 23:58:00,15.0,11.3,30.40,West,274,0.0,0.0,85,0.00,CLR,,0.00,WeatherDisplay:10.37,2013-02-07 04:58:00,